Regional Weather Roundup
Issued by NWS

Home | Current Version | Previous Version | Text Only | Print | Product List | Glossary Off
Versions: 1 2 3 4 5 6 7 8 9 10 11 12 13 14 15 16 17 18 19 20 21 22 23 24 25 26 27 28 29 30 31 32 33 34 35 36 37 38 39 40 41 42 43 44 45 46 47 48 49 50

000
ASUS43 KMPX 211110
RWRMN
WEATHER ROUNDUP FOR MINNESOTA
NATIONAL WEATHER SERVICE TWIN CITIES/CHANHASSEN MN
600 AM CDT SUN SEP 21 2014


NOTE: "FAIR" INDICATES FEW OR NO CLOUDS BELOW 12,000 FEET WITH NO
SIGNIFICANT WEATHER AND/OR OBSTRUCTIONS TO VISIBILITY. N/A MEANS
CURRENT SKY AND/OR WEATHER CONDITIONS ARE NOT AVAILABLE.

MNZ060>063-068>070-211200-
   Twin Cities Metro

CITY           SKY/WX    TMP DP  RH WIND       PRES   REMARKS
TWIN CITIES    CLOUDY    54  46  74 NW18G26   29.96R
ST PAUL        CLOUDY    54  47  77 NW21G29   29.96R
CRYSTAL        CLOUDY    54  46  74 NW16G23   29.97R
BLAINE         LGT RAIN  54  52  94 NW12      29.96R
LAKEVILLE      MOCLDY    52  46  82 NW18      29.96R
EDEN PRAIRIE   PTCLDY    54  47  77 NW13G24   29.96R
SOUTH ST PAUL  CLOUDY    55  47  74 NW17G25   29.95R
LAKE ELMO      LGT RAIN  52  50  93 NW14G21   29.95R
$$
MNZ001>005-007-008-013>017-022>024-027-028-211200-
   Northwest Minnesota

CITY           SKY/WX    TMP DP  RH WIND       PRES   REMARKS
BEMIDJI        DRIZZLE   49  49  99 W5        30.03R
HALLOCK        CLOUDY    52  50  93 NW8       30.08R
ROSEAU         CLOUDY    54  48  82 N3        30.04S
WARROAD        MOCLDY    52  46  82 NW5       30.04R
THIEF RVR FALL CLOUDY    52  48  87 NW12      30.07R
CROOKSTON      CLEAR     48  46  93 NW6       30.09R
FOSSTON        CLOUDY    48  48 100 NW7       30.06R
DETROIT LAKES  CLOUDY    52  50  93 NW9       30.07R
MOORHEAD       CLEAR     50  50 100 NW7       30.10R
PARK RAPIDS    CLOUDY    51  49  92 NW7       30.03R
MAHNOMEN       CLOUDY    50  49  97 NW9       30.07R
$$
MNZ006-009>011-018-025>026-211200-
   North Central Minnesota

CITY           SKY/WX    TMP DP  RH WIND       PRES   REMARKS
BAUDETTE       MOCLDY    49  48  97 NW5       30.03R
FLAG ISLAND    PTCLDY    52  50  93 NW10      30.02R
INTL FALLS     CLOUDY    50  48  93 N6        30.00R
WASKISH        CLOUDY    48  48 100 NW9       30.03R FOG
BIG FORK       CLOUDY    48  46  93 NW3       30.01R
LONGVILLE      PTCLDY    48  46  93 CALM      30.01R
GRAND RAPIDS   CLOUDY    48  45  87 NW12      29.99R
CRANE LAKE     CLOUDY    48  46  93 NW6       29.99R
ORR            CLOUDY    50  46  87 NW6       29.96R
COOK           CLOUDY    48  48 100 NW5       29.98R
WALKER         CLOUDY    48  47  95 NW5       30.03R
$$
MNZ012-019>021-037-211200-
   Northeast Minnesota

CITY           SKY/WX    TMP DP  RH WIND       PRES   REMARKS
DULUTH         CLOUDY    53  48  83 N8        29.93R
ELY            PTCLDY    46  45  93 CALM      29.95R
HIBBING        CLOUDY    51  48  89 NW10      29.97R
EVELETH        CLOUDY    52  50  93 N8        29.96R
DULUTH HARBOR  MOCLDY    52  52 100 CALM      29.94R
TWO HARBORS    MOCLDY    50  45  81 NW3       29.91R
SILVER BAY     PTCLDY    46  46 100 CALM      29.90R
GRAND MARAIS     N/A     51  42  71 E3        29.90R
G MARAIS ARPRT MOCLDY    43  37  81 N6        29.89R
$$
MNZ029>031-032-039>041-046>048-054>057-064-211200-
   West Central Minnesota

CITY           SKY/WX    TMP DP  RH WIND       PRES   REMARKS
FERGUS FALLS   CLOUDY    52  48  87 N12       30.09R
WHEATON        CLEAR     48  45  87 NW9       30.12R
MORRIS         CLEAR     48  46  93 NW7       30.07R
ALEXANDRIA     CLOUDY    52  49  89 NW9       30.07R
ELBOW LAKE     MOCLDY    49  48  95 N10       30.08R
WADENA         PTCLDY    48  46  93 W3        30.04R
GLENWOOD       MOCLDY    52  48  87 NW9       30.07R
APPLETON       CLEAR     52  46  82 NW7       30.08R
BENSON         CLEAR     48  46  93 N6        30.07R
ORTONVILLE     CLEAR     52  46  82 NW9       30.09R
MADISON        CLEAR     52  46  82 W8        30.09R
WILLMAR        FAIR      52  48  87 NW10      30.06R
$$
MNZ033>034-036-042>043-049>051-058-059-211200-
   Central Minnesota

CITY           SKY/WX    TMP DP  RH WIND       PRES   REMARKS
ST CLOUD       CLEAR     52  46  80 NW9       30.00R
SAUK CENTRE    CLOUDY    51  48  90 NW12      30.05R
PAYNESVILLE    PTCLDY    49  47  95 W8        30.05R
AITKIN         CLOUDY    52  46  82 NW3       29.99R
PINE RIVER     CLOUDY    52  46  82 NW6       30.04R
BRAINERD       MOCLDY    49  46  90 NW12      30.02R
STAPLES        PTCLDY    46  45  93 NW5       30.03R
LONG PRAIRIE   FAIR      48  46  93 W8        30.05R
LITTLE FALLS   CLEAR     48  45  87 NW5       30.02R
LITCHFIELD     CLEAR     54  52  94 NW9G16    30.04R
BUFFALO        CLEAR     52  46  80 NW9       30.01R
MAPLE LAKE     CLEAR     52  48  86 NW9       30.01R
$$
MNZ037-044-045-052-053-211200-
   East Central Minnesota

CITY           SKY/WX    TMP DP  RH WIND       PRES   REMARKS
PRINCETON      MOCLDY    52  46  82 NW9       29.98R
MORA           CLOUDY    50  46  87 N9G16     29.99R
CAMBRIDGE      RAIN      54  45  71 NW9       29.95R
RUSH CITY      CLOUDY    51  49  92 NW9G17    29.96R
MOOSE LAKE     CLOUDY    50  46  87 NW5       29.95R
HINCKLEY       CLOUDY    52  50  93 NW9       29.96R
CLOQUET        CLOUDY    52  48  87 NW10G16   29.95R
MCGREGOR       CLOUDY    50  48  93 NW6       29.99R
$$
MNZ071>073-080-081-089-090-097-098-211200-
   Southwest Minnesota

CITY           SKY/WX    TMP DP  RH WIND       PRES   REMARKS
MONTEVIDEO     CLEAR     50  46  87 N8        30.08R
GRANITE FALLS  CLEAR     49  47  93 W8        30.08R
CANBY          CLEAR     52  47  82 NW8       30.11R
MARSHALL       CLEAR     52  43  71 NW12      30.07R
REDWOOD FALLS  CLEAR     52  48  86 NW9G18    30.05R
OLIVIA         CLEAR     50  46  87 NW7       30.04R
PIPESTONE      CLEAR     50  45  81 NW7       30.11R
WINDOM         CLEAR     52  46  82 NW9       30.06R
WORTHINGTON    CLEAR     50  43  76 NW9       30.09R
JACKSON        CLEAR     54  45  71 NW14G20   30.06R
TRACY          CLEAR     53  46  77 NW9G16    30.08R
SLAYTON        CLEAR     50  45  84 CALM      30.09R
$$
MNZ065>067-074>077-082>085-091>093-211200-
   South Central Minnesota

CITY           SKY/WX    TMP DP  RH WIND       PRES   REMARKS
MANKATO        CLEAR     52  45  76 NW12      30.00R
NEW ULM        CLEAR     50  50 100 NW9       30.03R
ST JAMES       CLEAR     54  48  82 W10       30.04R
FAIRMONT       CLEAR     54  43  66 NW13G20   30.03R
GLENCOE        CLEAR     53  47  82 NW9       30.00R
FARIBAULT      CLEAR     55  46  71 NW8       29.98R
OWATONNA       CLEAR     52  48  87 NW12      29.97R
WASECA         CLEAR     50  45  81 NW12G20   30.00R
ALBERT LEA     PTCLDY    54  50  87 NW9G18    29.98R
$$
MNZ078>079-086>088-094>096-211200-
   Southeast Minnesota

CITY           SKY/WX    TMP DP  RH WIND       PRES   REMARKS
ROCHESTER      CLEAR     51  47  86 NW17G24   29.92R
RED WING       CLOUDY    55  46  71 NW10      29.91R
STANTON        MOCLDY    54  47  77 NW16      29.94R
DODGE CENTER   PTCLDY    52  50  93 NW14      29.94R
WINONA         CLOUDY    55  48  76 NW17      29.87R
AUSTIN         CLOUDY    52  48  87 NW15G23   29.95R
PRESTON        PTCLDY    52  51  98 NW15G24   29.91R
$$
ABBREVIATIONS USED IN REMARKS
   TC - TEMPERATURES IN CELSIUS
  WCI - WIND CHILL INDEX
   HX - HEAT INDEX
  VSB - VISIBILITY
$$



USA.gov is the U.S. government's official web portal to all federal, state and local government web resources and services.